Weather in Cabo Frio

Brazil     22°52′15″S   42°01′20″W
temp.,
°C
wind,
m/s
gust,
m/s
humid.,
%
clouds,
%
prec.,
mm/h
press.,
hPa
HPBL,
m
3 march, wed
wed300:00+24ne71383100 0.0 1016595
03:00+24ne7138292 0.0 1015539
06:00+23ne6118449 0.0 1016355
09:00+26ne577675 0.0 1017348
12:00+29ene557085 0.0 1017538
15:00+28ene697881 0.9 1015367
18:00+26ene71282100 0.4 1014375
21:00+25ne8148184 0.5 1016470
4 march, thu
thu400:00+24ne8138167 0.0 1016477
03:00+23ne8138143 0.0 1014451
06:00+23ne611874 0.0 1014355
09:00+26nne567752 0.0 1015308
12:00+30ene4466100 0.0 1014593
15:00+29ene6768100 0.1 1012520
18:00+26ene6107977 0.3 1011258
21:00+24ne7118289 0.3 1012292
5 march, fri
fri500:00+24nne61084100 0.0 1011276
03:00+23nne468970 0.0 1010153
06:00+22n238695 0.0 101064
09:00+28nne346685 0.0 1011320
12:00+32nne235141 0.0 10091041
15:00+32ene565443 0.0 1007938
18:00+27ne597590 0.0 1006177
21:00+25nne458191 0.0 1008111
6 march, sat
sat600:00+24nnw2283100 0.0 100846
03:00+25n1274100 0.0 100630
06:00+24n227787 0.0 100734
09:00+27nnw127279 0.0 1007188
12:00+32sse335619 0.0 1007765
15:00+29se456821 0.9 1006376
18:00+25se238783 1.8 100781
21:00+25sw019192 2.5 101024
7 march, sun
sun700:00+24n1194100 0.1 100925
03:00+24ne1193100 0.1 100825
06:00+24e119392 0.0 100926
09:00+26se118696 0.0 1010257
12:00+27se338097 2.1 1010478
15:00+25s359099 5.8 1009270
18:00+24ssw239495 0.9 1010107
21:00+24wsw229497 2.4 101257